Location: Central Falls
(41.8900°N, 71.3929°W)
Time: 03:42:56
(UTC+00:00)

Vanguard 2 - Pass Details

Date: 04 December 2023
Orbit: 554 x 2918 km, 32.9° (Epoch: 01 March)

Event Time Altitude Azimuth Distance (km) Brightness Sun altitude
Rises 01:17:06 0° 225° (SW) 6,733 12.7 -44.3°
Reaches altitude 10° 01:22:00 10° 219° (SW) 5,739 12.1 -45.2°
Enters shadow 01:33:04 36° 187° (S) 3,799 10.8 -47.2°
Maximum altitude 01:37:32 41° 157° (SSE) 3,402 - -48.1°
Drops below altitude 10° 01:49:29 10° 94° (E) 4,475 - -50.2°
Sets 01:52:44 0° 87° (E) 5,177 - -50.8°
